Showing default

FLOCK 4G 22, 62645

Orbit data source: Space-Track

FLOCK 4G 22, 62645 is a payload satellite owned by Planet (US) in SSO that was launched on Tue, 14 Jan 2025 UTC via an FALCON 9 launch vehicle from the Air Force Western Test Range (AFWTR). Payload-class satellites include a variety of spacecraft equipped with specific instruments for various scientific and technological missions. These include communications satellites like Starlink; space stations such as the ISS; scientific satellites like the Hubble; Earth observation satellites from companies like Planet Labs, Umbra, and HawkEye 360; GPS; miniature CubeSats for education and research; and military/defense satellites.

Loading next visibility...
Identifier
62645, 2025-009AN
Orbit
SSO
Last TLE update
13 hours ago
Origin
Manufacturer
Planet
Mission
Operational Commercial Imaging
Bus & Motor
CUBESAT 3U, Unknown motor
Mass
5.7 kg wet, 5.7 kg dry
Launch date (UTC)
2025-01-14 (4 months ago)
Launch vehicle
FALCON 9
Launch site
Air Force Western Test Range (AFWTR)
Object type
Payload
Rocket body
Debris
Shape & HBR
Box + 2 Pan, 0.3 m
Radar Cross Section
0.035 m², Medium (>0.1 m² and < 1m²)

Expand to show TLE details & history

TLE from 13 hours ago
0 FLOCK 4G 22
1 62645U 25009AN  25128.73224432  .00007582  00000-0  34892-3 0  9995
2 62645  97.4321 209.6781 0001189 271.0375  89.0724 15.20603138 17296
Epoch: 2025-05-08T17:34Z
Definitive object data (Epoch: 2025-05-08T17:34:25.909Z)
Latitude
-0.00003°
Longitude
79.27163°
Altitude
507.097 km
Speed
7.611 km/s
True Right ascension
13h 58m 42s
True Declination
0° 00' 00"
Sunlit
Object was in full shadow at TLE epoch
Visualization TLE readout
Latitude
61.84457°
Longitude
-86.16014°
Altitude
515.338 km
Speed
7.612 km/s
Apparent Right ascension
02h 54m 08s
Apparent Declination
13° 39' 59"
Sunlit
Object is in daylight
Visualization observer readout
Local Sidereal Time
14:52:14
Azimuth
359.428° N
Elevation
-36.416°
Doppler factor
1
Orbital elements
Apogee altitude
501.804 km
Perigee altitude
500.168 km
Semi-major axis
6,879.123 km
Eccentricity
0.0001189
Inclination
97.4321°
RAAN
209.6781°
Arg. of periapsis
271.0375°
True anomaly
89.08602°
Mean anomaly
89.0724°
Eccentric anomaly
89.07921°
Mean motion
3.80403 °/min
BSTAR
0.00034892
Orbital period
94.64 mins
Loading maneuver chart data...
Loading SW <> Apogee altitude chart data...
Loading historical data...
Loading historical data...
Loading historical data...
Loading historical data...
Loading historical data...
Loading historical data...
Loading historical data...

FLOCK 4G 22 Visibility forecast

Observer location: undefined°, undefined°

Span
Click to sort rows by Start time (UTC) header in descending order
Start Az.
Max El. time (UTC)
Max El. Az.
Max El.
End time (UTC)
End Az.
6 mins2025-05-09 17:49:21.974Z27.19° NE2025-05-09 17:52:21.974Z79.347° E32.404°2025-05-09 17:55:21.974Z164.317° S
4 mins2025-05-10 06:02:21.974Z218.827° SW2025-05-10 06:04:21.974Z269.757° W25.082°2025-05-10 06:06:21.974Z313.901° NW
|